1489075200.17,25796,10.94,73066.8,-7.81,-36.67,-38.61,0,*59
1489075201.45,25797,10.94,73062.0,-7.81,-35.23,-39.03,0,*5E
1489075202.74,25798,10.94,73070.5,-7.81,-34.83,-38.49,0,*55
1489075204.03,25799,10.94,73074.5,-7.81,-33.49,-37.69,0,*58
1489075205.31,25800,10.94,73068.3,-7.81,-32.97,-37.69,0,*55
1489075206.57,25801,10.94,73074.8,-7.81,-33.21,-39.15,0,*5D
1489075207.84,25802,10.94,73084.3,-7.83,-31.61,-36.91,0,*59
1489075209.1,25803,10.94,73086.3,-7.81,-31.61,-36.85,0,*5F
1489075210.39,25804,10.94,73080.0,-7.81,-33.49,-39.03,0,*51
1489075211.64,25805,10.94,73078.0,-7.81,-35.17,-39.53,0,*58
1489075212.91,25806,10.94,73064.8,-7.81,-35.53,-39.23,0,*5C
1489075214.18,25807,10.94,73068.3,-7.81,-35.01,-38.79,0,*54
1489075215.44,25808,10.94,73078.0,-7.81,-34.25,-38.49,0,*5F
1489075216.73,25809,10.94,73074.5,-7.81,-33.77,-38.23,0,*52
1489075218.03,25810,10.94,73076.0,-7.81,-32.79,-37.63,0,*5E
1489075219.27,25811,10.94,73074.8,-7.81,-31.29,-35.77,0,*5E
1489075220.54,25812,10.94,73080.8,-7.81,-31.95,-36.31,0,*5B
1489075221.81,25813,10.94,73078.0,-7.79,-30.01,-35.95,0,*5C
1489075223.04,25814,10.94,73062.3,-7.81,-30.23,-35.17,0,*56
1489075224.3,25815,10.94,73062.3,-7.79,-30.73,-35.07,0,*54
1489075225.51,25816,10.94,73076.0,-7.79,-32.51,-36.19,0,*59
1489075226.74,25817,10.94,73060.3,-7.79,-31.79,-35.23,0,*5B
1489075228.0,25818,10.94,73052.3,-7.79,-31.73,-36.13,0,*5E
1489075229.23,25819,10.94,73066.8,-7.79,-32.13,-36.91,0,*50
1489075230.49,25820,10.94,73082.3,-7.83,-26.29,-34.19,0,*51
1489075231.73,25821,10.94,73072.0,-7.81,-26.45,-36.85,0,*5F
1489075232.99,25822,10.94,73060.8,-7.81,-33.03,-38.23,0,*58
1489075234.25,25823,10.94,73056.0,-7.81,-35.35,-38.85,0,*56
1489075235.52,25824,10.94,73060.0,-7.81,-33.95,-37.63,0,*5A
1489075236.76,25825,10.94,73064.0,-7.79,-27.45,-30.83,0,*5D
1489075238.0,25826,10.94,73048.0,-7.79,-25.87,-29.35,0,*57
1489075239.21,25827,10.94,73068.5,-7.79,-27.55,-33.15,0,*52
1489075240.48,25828,10.94,73078.3,-7.77,-28.43,-30.83,0,*57
1489075241.71,25829,10.94,73068.0,-7.79,-26.45,-29.17,0,*55
1489075242.99,25830,10.94,73070.0,-7.77,-33.49,-36.61,0,*54
1489075244.25,25831,10.94,73070.8,-7.77,-33.83,-37.93,0,*5F
1489075245.5,25832,10.94,73062.0,-7.77,-36.67,-39.53,0,*51
1489075246.76,25833,10.94,73050.8,-7.77,-37.99,-38.61,0,*50
1489075247.99,25834,10.94,73028.5,-7.77,-35.89,-38.73,0,*57
1489075249.22,25835,10.94,73042.3,-7.79,-30.33,-33.49,0,*5E
1489075250.48,25836,10.94,73048.5,-7.77,-30.05,-33.67,0,*5A
1489075251.76,25837,10.94,73066.0,-7.77,-28.59,-33.31,0,*58
1489075253.05,25838,10.94,73054.0,-7.77,-27.35,-30.77,0,*53
1489075254.32,25839,10.94,73030.5,-7.77,-29.79,-35.83,0,*5A
1489075255.58,25840,10.94,73032.8,-7.77,-28.53,-32.45,0,*50
1489075256.84,25841,10.94,73058.5,-7.77,-28.69,-33.89,0,*59
1489075258.1,25842,10.94,73058.0,-7.77,-28.53,-32.79,0,*5D
1489075259.34,25843,10.94,73062.5,-7.75,-29.01,-32.91,0,*5E
1489075260.6,25844,10.94,73060.3,-7.75,-29.13,-33.89,0,*52
1489075261.82,25845,10.94,73060.0,-7.75,-29.95,-33.67,0,*5D
1489075263.06,25846,10.94,73046.3,-7.75,-31.51,-35.29,0,*53
1489075264.29,25847,10.94,73048.0,-7.73,-28.53,-33.03,0,*50
1489075265.5,25848,10.94,73060.3,-7.75,-24.35,-29.23,0,*5C
1489075266.74,25849,10.94,73064.8,-7.73,-24.05,-28.69,0,*57
1489075267.97,25850,10.94,73070.5,-7.75,-29.23,-33.73,0,*51
1489075269.21,25851,10.94,73022.8,-7.75,-32.75,-37.45,0,*58
1489075270.44,25852,10.94,73028.8,-7.73,-34.59,-37.45,0,*55
1489075271.65,25853,10.94,73066.5,-7.75,-32.39,-34.59,0,*5C
1489075272.92,25854,10.94,73048.0,-7.75,-32.63,-36.25,0,*5D
1489075274.16,25855,10.94,73080.8,-7.75,-34.77,-37.81,0,*50
1489075275.4,25856,10.94,73058.5,-7.73,-36.01,-38.55,0,*50
1489075276.66,25857,10.94,73060.8,-7.73,-35.29,-37.93,0,*5D
1489075277.92,25858,10.94,73056.0,-7.75,-36.25,-37.99,0,*51
1489075279.16,25859,10.94,73060.5,-7.73,-35.77,-37.33,0,*52
1489075280.42,25860,10.94,73062.8,-7.73,-34.77,-36.61,0,*5F
1489075281.65,25861,10.94,73066.3,-7.73,-36.01,-37.75,0,*59
1489075282.91,25862,10.94,73072.3,-7.75,-35.35,-37.39,0,*50
1489075284.2,25863,10.94,73060.5,-7.73,-35.23,-37.39,0,*50
1489075285.41,25864,10.94,73060.3,-7.75,-35.89,-38.17,0,*52
1489075286.65,25865,10.94,73052.3,-7.75,-36.31,-37.99,0,*5A
1489075287.91,25866,10.94,73072.5,-7.73,-35.77,-36.91,0,*57
1489075289.17,25867,10.94,73058.5,-7.75,-34.35,-37.81,0,*57
1489075290.43,25868,10.94,73054.8,-7.73,-36.61,-37.75,0,*56
1489075291.73,25869,10.94,73062.8,-7.73,-34.95,-35.83,0,*55
1489075292.95,25870,10.94,73046.5,-7.75,-34.07,-35.29,0,*50
1489075294.18,25871,10.94,73070.5,-7.73,-33.37,-36.19,0,*53
1489075295.42,25872,10.94,73046.0,-7.73,-33.21,-36.19,0,*57
1489075296.66,25873,10.94,73058.3,-7.75,-32.01,-33.31,0,*5C
1489075297.9,25874,10.94,73054.5,-7.75,-31.11,-36.43,0,*59
1489075299.15,25875,10.94,73064.3,-7.73,-31.17,-34.31,0,*5F
1489075300.39,25876,10.94,73072.3,-7.75,-27.51,-31.51,0,*5C
1489075301.62,25877,10.94,73060.0,-7.75,-32.91,-36.13,0,*54
1489075302.88,25878,10.94,73058.3,-7.75,-31.11,-33.89,0,*56
1489075304.16,25879,10.94,73066.5,-7.73,-30.61,-35.07,0,*57
1489075305.37,25880,10.94,73066.0,-7.75,-31.67,-35.29,0,*5C
1489075306.6,25881,10.94,73066.8,-7.75,-36.61,-38.73,0,*5E
1489075307.81,25882,10.94,73064.8,-7.75,-37.03,-38.61,0,*5B
1489075309.04,25883,10.94,73062.0,-7.73,-37.87,-39.47,0,*55
1489075310.3,25884,10.94,73028.3,-7.73,-38.05,-39.41,0,*51
1489075311.56,25885,10.94,73050.5,-7.73,-36.79,-37.87,0,*51
1489075312.79,25886,10.94,73042.5,-7.75,-34.41,-37.81,0,*5B
1489075314.05,25887,10.94,73048.0,-7.75,-37.93,-39.53,0,*57
1489075315.28,25888,10.94,73056.3,-7.75,-35.65,-37.75,0,*59
1489075316.51,25889,10.94,73072.0,-7.75,-35.35,-37.27,0,*5A
1489075317.74,25890,10.94,73052.5,-7.75,-35.47,-37.81,0,*5B
1489075319.01,25891,10.94,73040.8,-7.77,-36.97,-37.81,0,*56
1489075320.27,25892,10.94,73070.0,-7.77,-36.25,-37.57,0,*57
1489075321.51,25893,10.94,73038.5,-7.75,-39.09,-40.29,0,*5C
1489075322.72,25894,10.94,73040.5,-7.75,-37.75,-39.09,0,*52
1489075323.98,25895,10.94,73066.5,-7.77,-35.35,-38.55,0,*5F
1489075325.24,25896,10.94,73062.3,-7.77,-34.83,-38.55,0,*50
1489075326.5,25897,10.94,73068.3,-7.77,-37.63,-40.35,0,*55
1489075327.75,25898,10.94,73044.5,-7.77,-37.57,-39.97,0,*5B
1489075329.0,25899,10.94,73050.5,-7.77,-37.75,-39.53,0,*52
1489075330.27,25900,10.94,73040.3,-7.79,-37.99,-39.79,0,*57
1489075331.52,25901,10.94,73042.3,-7.77,-38.55,-39.71,0,*5F
1489075332.78,25902,10.94,73028.8,-7.77,-38.29,-39.91,0,*59
1489075334.02,25903,10.94,73028.5,-7.77,-39.09,-40.35,0,*5B
1489075335.3,25904,10.94,73046.5,-7.77,-38.11,-39.71,0,*5A
1489075336.54,25905,10.94,73060.5,-7.79,-38.49,-40.03,0,*53
1489075337.8,25906,10.94,73048.0,-7.77,-39.15,-39.09,0,*52
1489075339.03,25907,10.94,73026.0,-7.79,-38.97,-39.15,0,*5B
1489075340.28,25908,10.94,73022.0,-7.79,-38.67,-39.53,0,*59
1489075341.51,25909,10.94,73058.3,-7.77,-38.73,-39.35,0,*53
1489075342.74,25910,10.94,73040.0,-7.79,-38.67,-39.65,0,*55
1489075344.0,25911,10.94,73040.5,-7.77,-39.09,-39.71,0,*56
1489075345.23,25912,10.94,73038.3,-7.77,-38.35,-39.47,0,*5E
1489075346.45,25913,10.94,73052.8,-7.77,-38.17,-39.35,0,*5A
1489075347.73,25914,10.94,73054.5,-7.77,-37.93,-39.29,0,*53
1489075348.99,25915,10.94,73058.5,-7.79,-37.81,-39.23,0,*55
1489075350.27,25916,10.94,73066.3,-7.77,-38.11,-39.59,0,*53
1489075351.51,25917,10.94,73070.5,-7.79,-38.17,-39.97,0,*58
1489075352.79,25918,10.94,73074.3,-7.77,-38.11,-39.79,0,*5F
1489075354.03,25919,10.94,73076.8,-7.79,-38.49,-40.15,0,*59
1489075355.29,25920,10.94,73080.5,-7.77,-38.91,-40.35,0,*5A
1489075356.49,25921,10.94,73082.5,-7.79,-38.35,-40.15,0,*59
1489075357.75,25922,10.94,73078.3,-7.77,-37.39,-40.15,0,*57
1489075359.01,25923,10.94,73080.3,-7.79,-35.07,-39.15,0,*59
1489075360.28,25924,10.94,73076.3,-7.77,-34.59,-37.93,0,*5A
1489075361.57,25925,10.94,73078.3,-7.77,-34.53,-37.99,0,*5B
1489075362.83,25926,10.94,73082.0,-7.77,-34.07,-37.69,0,*56
1489075364.08,25927,10.94,73086.3,-7.77,-33.89,-36.85,0,*55
1489075365.33,25928,10.94,73078.8,-7.79,-34.77,-38.23,0,*50
1489075366.56,25929,10.94,73080.5,-7.77,-35.17,-38.61,0,*5E
1489075367.82,25930,10.94,73074.8,-7.77,-36.61,-40.15,0,*58
1489075369.05,25931,10.94,73078.3,-7.79,-36.73,-39.41,0,*5B
1489075370.3,25932,10.94,73074.3,-7.79,-36.13,-39.23,0,*5A
1489075371.53,25933,10.94,73076.3,-7.79,-35.41,-38.85,0,*52
1489075372.76,25934,10.94,73082.8,-7.79,-35.23,-38.97,0,*52
1489075373.99,25935,10.94,73080.3,-7.77,-35.71,-38.61,0,*53
1489075375.24,25936,10.94,73072.0,-7.77,-35.35,-38.73,0,*53
1489075376.5,25937,10.94,73076.0,-7.77,-35.47,-38.79,0,*5D
1489075377.71,25938,10.94,73078.8,-7.79,-35.17,-38.43,0,*50
1489075378.96,25939,10.94,73084.8,-7.77,-35.35,-38.43,0,*5F
1489075380.23,25940,10.94,73080.8,-7.79,-34.83,-37.81,0,*52
1489075381.5,25941,10.94,73080.3,-7.77,-35.01,-37.81,0,*56
1489075382.75,25942,10.94,73076.3,-7.77,-34.01,-37.27,0,*58
1489075384.02,25943,10.94,73084.3,-7.77,-29.79,-33.27,0,*5E
1489075385.3,25944,10.94,73086.0,-7.77,-28.05,-32.63,0,*52
1489075386.57,25945,10.94,73090.5,-7.77,-29.57,-35.35,0,*51
1489075387.83,25946,10.94,73078.3,-7.77,-30.11,-34.95,0,*53
1489075389.1,25947,10.94,73086.5,-7.77,-30.51,-34.35,0,*5C
1489075390.31,25948,10.94,73092.3,-7.79,-29.07,-34.59,0,*5C
1489075391.6,25949,10.94,73090.3,-7.77,-28.21,-33.43,0,*5A
1489075392.83,25950,10.94,73082.8,-7.79,-30.33,-36.13,0,*56
1489075394.09,25951,10.94,73086.0,-7.77,-29.45,-34.35,0,*56
1489075395.35,25952,10.94,73088.0,-7.77,-31.91,-36.97,0,*5F
1489075396.58,25953,10.94,73086.0,-7.77,-30.83,-36.07,0,*55
1489075397.81,25954,10.94,73082.5,-7.79,-31.39,-35.71,0,*5E
1489075399.02,25955,10.94,73084.0,-7.79,-31.33,-34.77,0,*52
1489075400.27,25956,10.94,73078.0,-7.77,-30.11,-34.19,0,*56
1489075401.49,25957,10.94,73078.0,-7.79,-29.67,-34.07,0,*5F
1489075402.75,25958,10.94,73088.0,-7.77,-29.39,-35.01,0,*52
1489075403.99,25959,10.94,73082.0,-7.77,-32.57,-36.67,0,*52
1489075405.23,25960,10.94,73078.0,-7.77,-32.57,-35.71,0,*5C
1489075406.46,25961,10.94,73078.0,-7.79,-35.23,-38.61,0,*5B
1489075407.7,25962,10.94,73076.3,-7.79,-34.89,-37.63,0,*54
1489075408.97,25963,10.94,73084.0,-7.77,-34.07,-37.09,0,*51
1489075410.2,25964,10.94,73084.0,-7.79,-38.23,-40.53,0,*5D
1489075411.43,25965,10.94,73070.8,-7.77,-38.97,-40.35,0,*5D
1489075412.66,25966,10.94,73068.5,-7.79,-38.17,-39.97,0,*5E
1489075413.88,25967,10.94,73068.3,-7.77,-38.35,-39.47,0,*5C
1489075415.12,25968,10.94,73074.0,-7.79,-39.53,-40.53,0,*57
1489075416.36,25969,10.94,73064.8,-7.79,-39.23,-40.73,0,*53
1489075417.59,25970,10.94,73062.5,-7.79,-40.41,-40.73,0,*51
1489075418.83,25971,10.94,73060.8,-7.77,-38.43,-39.09,0,*50
1489075420.07,25972,10.94,73034.5,-7.79,-38.85,-39.59,0,*52
1489075421.31,25973,10.94,73026.0,-7.79,-36.85,-37.81,0,*56
1489075422.52,25974,10.94,73056.8,-7.79,-33.03,-34.13,0,*52
1489075423.74,25975,10.94,73054.5,-7.79,-29.45,-30.67,0,*5D
1489075425.0,25976,10.94,73088.0,-7.79,-28.25,-32.29,0,*51
1489075426.27,25977,10.94,73066.8,-7.79,-27.45,-32.85,0,*5F
1489075427.5,25978,10.94,73052.3,-7.79,-30.55,-35.89,0,*5C
1489075428.79,25979,10.94,73056.0,-7.77,-36.25,-37.81,0,*58
1489075430.05,25980,10.94,73052.8,-7.79,-35.41,-37.81,0,*51
1489075431.27,25981,10.94,73062.3,-7.79,-34.59,-38.17,0,*58
1489075432.47,25982,10.94,73064.0,-7.79,-31.17,-35.17,0,*59
1489075433.68,25983,10.94,73062.0,-7.79,-31.33,-35.13,0,*5A
1489075434.94,25984,10.94,73058.0,-7.79,-30.73,-36.13,0,*5B
1489075436.19,25985,10.94,73068.3,-7.81,-31.45,-36.31,0,*59
1489075437.48,25986,10.94,73050.0,-7.81,-31.95,-35.07,0,*51
1489075438.74,25987,10.94,73064.8,-7.79,-31.95,-36.49,0,*5E
1489075440.0,25988,10.94,73066.0,-7.77,-30.83,-36.49,0,*59
1489075441.23,25989,10.94,73062.8,-7.79,-29.67,-34.83,0,*50
1489075442.49,25990,10.94,73068.8,-7.81,-28.59,-33.95,0,*53
1489075443.75,25991,10.94,73068.3,-7.81,-27.55,-33.89,0,*5C
1489075445.04,25992,10.94,73070.3,-7.81,-29.17,-35.41,0,*55
1489075446.27,25993,10.94,73076.8,-7.79,-27.99,-34.41,0,*5A
1489075447.53,25994,10.94,73074.0,-7.79,-33.77,-38.23,0,*50
1489075448.76,25995,10.94,73074.3,-7.77,-32.23,-37.27,0,*54
1489075450.04,25996,10.94,73074.0,-7.77,-33.09,-35.65,0,*5A
1489075451.28,25997,10.94,73072.8,-7.81,-31.01,-35.01,0,*5A
1489075452.51,25998,10.94,73062.5,-7.79,-30.89,-35.71,0,*54
1489075453.74,25999,10.94,73060.8,-7.79,-30.33,-34.83,0,*58
1489075454.98,26000,10.94,73066.5,-7.79,-32.07,-37.27,0,*5A
1489075456.22,26001,10.94,73054.8,-7.79,-31.73,-35.89,0,*5D
1489075457.46,26002,10.94,73058.3,-7.79,-31.39,-35.01,0,*50
1489075458.67,26003,10.94,73070.5,-7.79,-31.05,-35.01,0,*5E
1489075459.89,26004,10.94,73070.5,-7.79,-34.07,-36.67,0,*5D
1489075461.12,26005,10.94,73062.5,-7.79,-33.61,-36.19,0,*52
1489075462.34,26006,10.94,73066.3,-7.79,-33.55,-36.55,0,*5E
1489075463.58,26007,10.94,73064.5,-7.79,-32.79,-36.55,0,*50
1489075464.82,26008,10.94,73064.8,-7.81,-32.69,-35.17,0,*5C
1489075466.06,26009,10.94,73054.8,-7.79,-33.49,-35.17,0,*59
1489075467.27,26010,10.94,73056.0,-7.79,-34.25,-36.73,0,*5D
1489075468.5,26011,10.94,73078.8,-7.79,-32.45,-34.59,0,*56
1489075469.74,26012,10.94,73066.3,-7.79,-34.25,-37.39,0,*50
1489075470.98,26013,10.94,73044.0,-7.79,-36.31,-38.49,0,*5E
1489075472.21,26014,10.94,73094.8,-7.79,-36.37,-38.35,0,*54
1489075473.45,26015,10.94,73074.8,-7.79,-34.31,-38.05,0,*52
1489075474.68,26016,10.94,73068.0,-7.81,-37.33,-40.35,0,*5B
1489075475.91,26017,10.94,73076.0,-7.81,-38.35,-39.85,0,*56
1489075477.14,26018,10.94,73078.3,-7.81,-38.97,-40.03,0,*51
1489075478.44,26019,10.94,73086.5,-7.81,-39.59,-40.59,0,*5C
1489075479.69,26020,10.94,73090.5,-7.83,-39.59,-40.47,0,*5B
1489075480.94,26021,10.94,73088.8,-7.81,-39.85,-40.91,0,*52
1489075482.2,26022,10.94,73090.8,-7.81,-40.53,-41.23,0,*5C
1489075483.43,26023,10.94,73088.8,-7.81,-40.53,-41.29,0,*57
1489075484.68,26024,10.94,73086.8,-7.81,-40.53,-41.35,0,*5D
1489075485.89,26025,10.94,73084.8,-7.83,-40.65,-41.41,0,*58
1489075487.14,26026,10.94,73086.0,-7.83,-40.09,-41.11,0,*54
1489075488.39,26027,10.94,73088.0,-7.83,-39.65,-41.23,0,*50
1489075489.66,26028,10.94,73080.3,-7.81,-39.53,-41.17,0,*5F
1489075490.87,26029,10.94,73072.0,-7.83,-39.85,-41.49,0,*5C
1489075492.16,26030,10.94,73076.8,-7.83,-39.59,-40.97,0,*57
1489075493.39,26031,10.94,73082.0,-7.83,-38.43,-39.23,0,*5D
1489075494.66,26032,10.94,73084.5,-7.83,-37.09,-38.67,0,*5E
1489075495.91,26033,10.94,73118.0,-7.83,-36.97,-38.67,0,*59
1489075497.11,26034,10.94,73094.3,-7.83,-37.33,-39.47,0,*52
1489075498.38,26035,10.94,73068.3,-7.83,-38.67,-40.09,0,*59
1489075499.64,26036,10.94,73080.0,-7.83,-38.91,-40.79,0,*54
1489075500.89,26037,10.94,73084.0,-7.83,-38.73,-40.41,0,*52
1489075502.15,26038,10.94,73074.8,-7.85,-38.49,-40.47,0,*54
1489075503.4,26039,10.94,73068.5,-7.83,-39.41,-41.11,0,*58
1489075504.66,26040,10.94,73072.5,-7.83,-39.03,-40.79,0,*5F
1489075505.9,26041,10.94,73072.8,-7.85,-38.05,-40.47,0,*52
1489075507.16,26042,10.94,73060.8,-7.85,-36.73,-40.21,0,*5E
1489075508.42,26043,10.94,73074.3,-7.85,-35.07,-38.73,0,*57
1489075509.65,26044,10.94,73084.5,-7.89,-35.17,-38.79,0,*57
1489075510.94,26045,10.94,73072.5,-7.85,-36.25,-39.71,0,*51
1489075512.2,26046,10.94,73094.0,-7.85,-38.29,-40.47,0,*5B
1489075513.43,26047,10.94,73088.0,-7.89,-37.75,-39.97,0,*53
1489075514.67,26048,10.94,73086.0,-7.85,-38.05,-40.03,0,*5B
1489075515.88,26049,10.94,73084.0,-7.89,-39.47,-40.53,0,*54
1489075517.12,26050,10.94,73086.5,-7.85,-39.65,-40.47,0,*55
1489075518.34,26051,10.94,73096.0,-7.89,-40.15,-41.29,0,*58
1489075519.58,26052,10.94,73088.8,-7.89,-40.15,-41.35,0,*56
1489075520.88,26053,10.94,73094.3,-7.85,-40.09,-41.23,0,*51
1489075522.12,26054,10.94,73096.0,-7.89,-39.53,-40.91,0,*53
1489075523.37,26055,10.94,73098.8,-7.89,-39.79,-41.03,0,*50
1489075524.57,26056,10.94,73084.3,-7.89,-40.35,-41.29,0,*5D
1489075525.82,26057,10.94,73086.5,-7.89,-40.15,-40.85,0,*59
1489075527.06,26058,10.94,73090.8,-7.89,-39.71,-40.65,0,*54
1489075528.27,26059,10.94,73090.5,-7.89,-39.09,-40.35,0,*5F
1489075529.52,26060,10.94,73088.3,-7.89,-40.09,-41.03,0,*5F
1489075530.75,26061,10.94,73088.0,-7.89,-40.29,-41.03,0,*5C
1489075531.97,26062,10.94,73090.3,-7.93,-40.15,-40.73,0,*5D
1489075533.25,26063,10.94,73088.8,-7.91,-40.85,-41.55,0,*52
1489075534.48,26064,10.94,73086.0,-7.93,-41.11,-41.23,0,*5A
1489075535.72,26065,10.94,73090.0,-7.93,-41.41,-41.55,0,*5F
1489075536.98,26066,10.94,73088.3,-7.93,-41.23,-41.55,0,*58
1489075538.23,26067,10.94,73080.5,-7.93,-41.55,-41.81,0,*51
1489075539.49,26068,10.94,73076.3,-7.91,-41.17,-41.35,0,*55
1489075540.72,26069,10.94,73076.5,-7.93,-40.97,-41.11,0,*59
1489075541.98,26070,10.94,73066.8,-7.93,-40.97,-40.97,0,*5E
1489075543.24,26071,10.94,73070.3,-7.95,-40.79,-41.11,0,*56
1489075544.5,26072,10.94,73068.8,-7.95,-40.35,-40.97,0,*52
1489075545.76,26073,10.94,73072.0,-7.95,-39.41,-39.85,0,*53
1489075547.02,26074,10.94,73080.3,-7.95,-39.53,-41.11,0,*55
1489075548.25,26075,10.94,73086.0,-7.93,-40.35,-40.97,0,*53
1489075549.51,26076,10.94,73080.8,-7.95,-40.97,-41.41,0,*54
1489075550.74,26077,10.94,73082.3,-7.95,-41.41,-41.73,0,*5E
1489075551.99,26078,10.94,73068.3,-7.95,-41.61,-41.93,0,*5D
1489075553.27,26079,10.94,73058.5,-7.95,-41.93,-41.93,0,*51
1489075554.51,26080,10.94,73060.8,-7.97,-41.67,-41.61,0,*53
1489075555.77,26081,10.94,73060.8,-7.97,-40.59,-40.85,0,*55
1489075557.0,26082,10.94,73066.8,-7.97,-40.21,-41.17,0,*53
1489075558.23,26083,10.94,73066.3,-7.97,-40.29,-41.29,0,*57
1489075559.51,26084,10.94,73062.3,-7.95,-40.79,-41.35,0,*5A
1489075560.74,26085,10.94,73058.8,-7.97,-40.59,-41.17,0,*5B
1489075562.0,26086,10.94,73062.0,-7.97,-40.09,-40.79,0,*54
1489075563.26,26087,10.94,73062.8,-7.97,-39.41,-40.29,0,*52
1489075564.47,26088,10.94,73062.0,-7.97,-40.47,-41.17,0,*59
1489075565.72,26089,10.94,73056.5,-7.99,-39.65,-40.15,0,*5B
1489075566.98,26090,10.94,73056.5,-7.99,-39.09,-39.53,0,*55
1489075568.24,26091,10.94,73054.3,-7.99,-38.55,-39.29,0,*51
1489075569.53,26092,10.94,73058.5,-7.99,-38.49,-40.09,0,*53
1489075570.74,26093,10.94,73062.0,-8.01,-38.73,-39.85,0,*5F
1489075571.98,26094,10.94,73066.5,-8.01,-38.79,-39.91,0,*57
1489075573.22,26095,10.94,73076.3,-7.99,-37.75,-39.09,0,*5A
1489075574.48,26096,10.94,73070.3,-7.99,-38.91,-40.35,0,*5D
1489075575.75,26097,10.94,73070.0,-7.99,-39.85,-40.85,0,*53
1489075577.0,26098,10.94,73068.0,-7.99,-39.85,-40.53,0,*57
1489075578.27,26099,10.94,73068.0,-7.99,-40.09,-40.91,0,*52
1489075579.52,26100,10.94,73066.0,-7.99,-40.35,-40.91,0,*5C
1489075580.75,26101,10.94,73064.5,-7.99,-40.65,-41.11,0,*51
1489075581.99,26102,10.94,73060.5,-7.99,-40.53,-41.03,0,*54
1489075583.22,26103,10.94,73058.3,-8.01,-39.97,-40.73,0,*5B
1489075584.47,26104,10.94,73058.5,-8.01,-39.71,-40.53,0,*56
1489075585.71,26105,10.94,73060.8,-8.01,-39.71,-40.47,0,*52
1489075586.92,26106,10.94,73064.8,-8.01,-39.65,-40.47,0,*54
1489075588.21,26107,10.94,73066.0,-7.99,-39.97,-40.85,0,*58
1489075589.48,26108,10.94,73064.8,-7.99,-40.09,-40.73,0,*57
1489075590.7,26109,10.94,73066.0,-8.01,-39.91,-40.65,0,*50
1489075591.94,26110,10.94,73060.0,-8.01,-40.09,-40.65,0,*57
1489075593.15,26111,10.94,73062.5,-8.01,-39.91,-40.65,0,*59
1489075594.37,26112,10.94,73062.0,-8.01,-39.85,-40.53,0,*5A
1489075595.59,26113,10.94,73056.8,-8.01,-39.85,-40.47,0,*5E
1489075596.83,26114,10.94,73062.8,-7.99,-39.65,-40.47,0,*59
1489075598.06,26115,10.94,73062.3,-8.01,-39.53,-40.47,0,*53
1489075599.32,26116,10.94,73068.0,-7.99,-39.29,-40.35,0,*56
1489075600.58,26117,10.94,73068.3,-7.99,-38.91,-40.15,0,*57
1489075601.79,26118,10.94,73072.8,-8.01,-38.97,-40.35,0,*52
1489075603.05,26119,10.94,73072.8,-8.01,-38.91,-40.29,0,*58
1489075604.28,26120,10.94,73074.8,-8.01,-38.73,-40.29,0,*5E
1489075605.52,26121,10.94,73074.5,-8.03,-38.61,-40.35,0,*53
1489075606.73,26122,10.94,73078.8,-8.01,-38.35,-40.35,0,*53
1489075607.93,26123,10.94,73078.8,-8.01,-38.17,-40.35,0,*52
1489075609.14,26124,10.94,73080.8,-8.01,-38.17,-40.35,0,*55
1489075610.38,26125,10.94,73084.8,-8.01,-38.11,-40.47,0,*57
1489075611.61,26126,10.94,73078.3,-8.01,-37.93,-40.53,0,*54
1489075612.85,26127,10.94,73076.0,-8.01,-37.93,-40.47,0,*50
1489075614.08,26128,10.94,73072.3,-8.01,-38.11,-40.47,0,*5A
1489075615.32,26129,10.94,73068.5,-8.01,-38.17,-40.29,0,*55
1489075616.58,26130,10.94,73066.5,-8.01,-38.11,-40.09,0,*59
1489075617.82,26131,10.94,73066.5,-8.01,-38.29,-39.91,0,*5C
1489075619.08,26132,10.94,73066.0,-8.01,-38.49,-39.97,0,*5F
1489075620.32,26133,10.94,73062.8,-8.01,-38.67,-40.15,0,*56
1489075621.55,26134,10.94,73062.0,-8.01,-38.73,-40.09,0,*59
1489075622.76,26135,10.94,73062.3,-8.01,-38.97,-40.15,0,*5F
1489075624.03,26136,10.94,73052.5,-8.01,-39.15,-40.29,0,*58
1489075625.3,26137,10.94,73050.8,-8.01,-39.15,-40.29,0,*59
1489075626.53,26138,10.94,73054.3,-8.01,-39.29,-40.35,0,*54
1489075627.76,26139,10.94,73054.3,-8.01,-39.53,-40.35,0,*58
1489075628.99,26140,10.94,73064.5,-8.01,-39.53,-40.47,0,*53
1489075630.21,26141,10.94,73066.0,-8.01,-39.65,-40.47,0,*57
1489075631.45,26142,10.94,73066.5,-8.01,-39.71,-40.53,0,*54
1489075632.67,26143,10.94,73070.3,-8.01,-39.65,-40.47,0,*55
1489075633.88,26144,10.94,73066.0,-8.01,-39.65,-40.47,0,*52
1489075635.12,26145,10.94,73066.5,-8.03,-39.91,-40.73,0,*5D
1489075636.36,26146,10.94,73062.5,-8.03,-39.91,-40.73,0,*5E
1489075637.6,26147,10.94,73074.5,-8.05,-39.35,-40.59,0,*5F
1489075638.84,26148,10.94,73084.3,-8.03,-39.35,-40.53,0,*5C
1489075640.05,26149,10.94,73078.5,-8.05,-39.91,-40.73,0,*57
1489075641.28,26150,10.94,73070.3,-8.05,-39.91,-40.91,0,*53
1489075642.52,26151,10.94,73076.3,-8.05,-39.71,-40.73,0,*50
1489075643.75,26152,10.94,73084.8,-8.05,-39.91,-40.79,0,*57
1489075644.99,26153,10.94,73082.0,-8.05,-40.03,-40.97,0,*53
1489075646.2,26154,10.94,73072.8,-8.05,-40.35,-41.41,0,*5B
1489075647.41,26155,10.94,73070.8,-8.05,-40.35,-41.29,0,*54
1489075648.64,26156,10.94,73072.8,-8.05,-40.21,-41.41,0,*5C
1489075649.86,26157,10.94,73074.5,-8.05,-39.91,-41.11,0,*5D
1489075651.07,26158,10.94,73084.3,-8.05,-39.91,-41.17,0,*54
1489075652.33,26159,10.94,73088.8,-8.03,-39.97,-41.41,0,*56
1489075653.54,26160,10.94,73090.8,-8.05,-40.03,-41.41,0,*59
1489075654.77,26161,10.94,73076.3,-8.03,-40.53,-41.73,0,*5A
1489075655.97,26162,10.94,73068.8,-8.05,-40.53,-41.61,0,*5C
1489075657.2,26163,10.94,73066.3,-8.05,-40.97,-41.99,0,*52
1489075658.45,26164,10.94,73068.3,-8.05,-40.97,-41.93,0,*5F
1489075659.69,26165,10.94,73070.3,-8.07,-41.17,-41.99,0,*5F
1489075660.98,26166,10.94,73080.3,-8.07,-41.35,-42.19,0,*57
1489075662.21,26167,10.94,73088.0,-8.07,-41.17,-41.99,0,*5D
1489075663.47,26168,10.94,73088.8,-8.11,-41.03,-42.05,0,*56
1489075664.73,26169,10.94,73090.5,-8.11,-41.03,-42.05,0,*57
1489075665.99,26170,10.94,73072.0,-8.07,-40.21,-41.73,0,*5B
1489075667.24,26171,10.94,73082.5,-8.07,-39.53,-41.61,0,*52
1489075668.53,26172,10.94,73090.5,-8.11,-38.49,-40.79,0,*54
1489075669.79,26173,10.94,73080.8,-8.11,-39.03,-41.49,0,*58
1489075671.05,26174,10.94,73076.5,-8.07,-39.97,-41.73,0,*5C
1489075672.32,26175,10.94,73076.8,-8.11,-39.65,-41.35,0,*55
1489075673.59,26176,10.94,73076.3,-8.11,-39.09,-41.23,0,*5B
1489075674.86,26177,10.94,73068.8,-8.11,-39.09,-40.59,0,*56
1489075676.14,26178,10.94,73082.8,-8.11,-40.59,-41.23,0,*5E
1489075677.38,26179,10.94,73080.8,-8.11,-40.47,-41.49,0,*5C
1489075678.58,26180,10.94,73056.8,-8.13,-41.11,-42.25,0,*53
1489075679.84,26181,10.94,73074.5,-8.13,-41.67,-42.05,0,*51
1489075681.1,26182,10.94,73068.0,-8.13,-41.55,-42.45,0,*57
1489075682.36,26183,10.94,73072.0,-8.13,-41.67,-42.31,0,*54
1489075683.6,26184,10.94,73072.8,-8.13,-41.73,-42.31,0,*56
1489075684.84,26185,10.94,73070.5,-8.13,-42.05,-42.63,0,*52
1489075686.11,26186,10.94,73070.0,-8.15,-42.25,-42.69,0,*5F
1489075687.35,26187,10.94,73064.0,-8.15,-42.13,-42.63,0,*51
1489075688.61,26188,10.94,73078.5,-8.15,-41.87,-42.45,0,*54
1489075689.88,26189,10.94,73070.5,-8.15,-41.93,-42.51,0,*55
1489075691.13,26190,10.94,73058.5,-8.15,-42.13,-42.63,0,*57
1489075692.39,26191,10.94,73064.8,-8.15,-42.13,-42.45,0,*52
1489075693.63,26192,10.94,73062.8,-8.15,-41.73,-42.13,0,*57
1489075694.9,26193,10.94,73072.8,-8.15,-41.87,-42.31,0,*5D
1489075696.18,26194,10.94,73080.5,-8.15,-41.93,-42.45,0,*5C
1489075697.45,26195,10.94,73064.5,-8.15,-41.87,-42.45,0,*58